Location: Nasgenstadt
(48.2786°N, 9.7553°E)
Time: 22:32:37
(UTC+01:00)

Tiangong 2 - Visible Passes

Search period start: 23 January 2018 00:00
Search period end: 02 February 2018 00:00
Orbit: 384 x 390 km, 42.8° (Epoch: 23 January)

Date Brightness Start Highest point End Pass type
(mag) Time Alt. Az. Time Alt. Az. Time Alt. Az.
23 Jan 4.6 05:00:32 11° ESE 05:00:32 11° ESE 05:00:40 10° ESE visible
23 Jan 2.6 06:32:48 18° SW 06:34:34 30° S 06:37:26 10° ESE visible
24 Jan 3.1 05:36:49 25° SE 05:36:49 25° SE 05:38:47 10° ESE visible
24 Jan 2.8 07:09:37 10° WSW 07:12:20 25° S 07:15:02 10° SE visible
25 Jan 2.4 06:13:03 26° SSW 06:13:44 29° S 06:16:33 10° ESE visible
26 Jan 3.9 05:17:01 17° SE 05:17:01 17° SE 05:17:58 10° ESE visible
26 Jan 3.0 06:49:17 12° WSW 06:51:25 20° SSW 06:53:52 10° SSE visible
27 Jan 2.8 05:53:15 24° S 05:53:15 24° S 05:55:32 10° SE visible
28 Jan 3.3 06:29:29 13° SW 06:30:27 15° SSW 06:32:21 10° SSE visible
29 Jan 3.8 05:33:30 14° SSE 05:33:30 14° SSE 05:34:18 10° SSE visible
